Location: Reeth
(54.3881°N, 1.9432°W)
Time: 17:20:35
(UTC+00:00)

X-37B - Visible Passes

Search period start: 21 January 2021 00:00
Search period end: 31 January 2021 00:00
Orbit: 384 x 390 km, 45.0° (Epoch: 02 January)

Date Brightness Start Highest point End Pass type
(mag) Time Alt. Az. Time Alt. Az. Time Alt. Az.
22 Jan 3.1 18:44:49 10° SSW 18:46:16 13° S 18:46:16 13° S visible
23 Jan 3.2 17:47:18 10° S 17:48:18 11° SSE 17:49:19 10° SE visible
23 Jan 3.5 19:22:05 10° SW 19:22:44 13° SSW 19:22:44 13° SSW visible
24 Jan 2.9 18:23:55 10° SSW 18:25:53 15° S 18:26:56 13° SSE visible
25 Jan 3.2 17:25:58 10° SSW 17:27:39 14° SSE 17:29:20 10° SE visible
25 Jan 3.1 19:01:33 10° SW 19:03:26 15° S 19:03:26 15° S visible
26 Jan 3.1 18:03:14 10° SW 18:05:16 16° S 18:07:18 10° SE visible
27 Jan 3.2 18:41:13 10° SW 18:42:53 13° SSW 18:44:15 11° SSE visible
28 Jan 3.3 17:42:43 10° SW 17:44:40 15° S 17:46:36 10° SSE visible
29 Jan 3.6 18:21:18 10° SW 18:22:14 11° SSW 18:23:10 10° S visible
30 Jan 3.5 17:22:23 10° SW 17:24:02 13° SSW 17:25:41 10° SSE visible
